Location: Asheville, NC
(35.6000°N, 82.5500°W)
Time: 07:32:58
(UTC-04:00)

XW-2F - Pass Details

Date: 05 January 2018
Orbit: 505 x 527 km, 97.5° (Epoch: 19 June)

Event Time Altitude Azimuth Distance (km) Brightness Sun altitude
Rises 05:44:57 0° 31° (NNE) 2,649 ? -22.8°
Reaches altitude 10° 05:47:37 10° 51° (NE) 1,751 ? -22.3°
Maximum altitude 05:50:12 18° 94° (E) 1,334 ? -21.8°
Drops below altitude 10° 05:52:45 10° 138° (SE) 1,732 ? -21.3°
Sets 05:55:23 0° 158° (SSE) 2,608 ? -20.8°
